Observations for Trim Patrick St
| Time | AQI | Temp °C | Hum % | Pres Pa | CO μg/m³ | H₂S μg/m³ | NO μg/m³ | NO₂ μg/m³ | O₃ μg/m³ | SO₂ μg/m³ | PM1 μg/m³ | PM2.5 μg/m³ | PM10 μg/m³ |
|---|---|---|---|---|---|---|---|---|---|---|---|---|---|
| Friday 7 August 2026 | |||||||||||||
| 00:23 | 2 | 14.9 | 68 | 105,413 | 0.17 | 6.11 | 3.19 | 20.5 | 32.34 | 0 | 3.71 | 7.46 | 8.21 |
| 00:22 | 2 | 14.9 | 68 | 103,395 | 0.17 | 4.71 | 3.19 | 25.46 | 43.47 | 0 | 3.71 | 8.17 | 8.99 |
| 00:21 | 2 | 14.9 | 67 | 101,408 | 0.17 | 4.71 | 3.17 | 20.73 | 28.76 | 0 | 3.71 | 8.24 | 9.07 |
| 00:20 | 2 | 15 | 68 | 99,308 | 0.16 | 5.33 | 3.17 | 14.54 | 36.8 | 0 | 2.86 | 5.98 | 6.57 |
| 00:19 | 2 | 15 | 68 | 97,895 | 0.15 | 5.77 | 3.12 | 21.39 | 43.54 | 0 | 2.86 | 7.43 | 8.18 |
| 00:18 | 2 | 15 | 67 | 95,744 | 0.16 | 6.45 | 3.1 | 21.06 | 45.87 | 0 | 2.86 | 7.53 | 8.28 |
| 00:17 | 2 | 15 | 65 | 93,714 | 0.16 | 6.79 | 2.93 | 24.32 | 44.22 | 0 | 2.86 | 6.91 | 7.6 |
| 00:16 | 2 | 15 | 65 | 91,754 | 0.17 | 6.82 | 2.92 | 25.1 | 34.39 | 0 | 2.86 | 7.69 | 8.46 |
| 00:15 | 2 | 15 | 66 | 89,774 | 0.16 | 5.77 | 3.12 | 21.33 | 34.41 | 0 | 2 | 6.85 | 7.53 |
| 00:14 | 2 | 15 | 64 | 88,535 | 0.16 | 6.5 | 2.97 | 25.32 | 29.13 | 0 | 2.86 | 7.03 | 7.73 |
| 00:13 | 2 | 15.1 | 68 | 87,081 | 0.17 | 4.63 | 3.15 | 18.65 | 28.85 | 0 | 3.71 | 7.47 | 8.22 |
| 00:12 | 2 | 15.1 | 68 | 86,413 | 0.16 | 5.62 | 3.16 | 18.76 | 43.64 | 0 | 2.86 | 6.72 | 7.39 |
| 00:11 | 2 | 15.1 | 68 | 85,936 | 0.16 | 6.14 | 3.13 | 23.02 | 41.45 | 0 | 2.86 | 7.47 | 8.21 |
| 00:10 | 2 | 15.1 | 66 | 85,258 | 0.17 | 5.8 | 2.98 | 25.88 | 22.52 | 0 | 2 | 6.86 | 7.55 |
| 00:09 | 2 | 15.1 | 68 | 84,663 | 0.17 | 4.89 | 3.11 | 18.31 | 34.68 | 0 | 2 | 6.72 | 7.39 |
| 00:08 | 2 | 15.1 | 68 | 84,393 | 0.15 | 4.94 | 3.15 | 16.25 | 33.26 | 0 | 2.86 | 6.72 | 7.39 |
| 00:07 | 2 | 15.2 | 68 | 84,077 | 0.16 | 7.49 | 3.12 | 28.02 | 47.34 | 0 | 2.86 | 7.45 | 8.2 |
| 00:06 | 2 | 15.2 | 68 | 83,581 | 0.16 | 4.94 | 3.13 | 22.97 | 33.88 | 0 | 2.86 | 6.74 | 7.42 |
| 00:05 | 2 | 15.2 | 68 | 83,365 | 0.16 | 4.97 | 3.13 | 20.32 | 38.47 | 0 | 2 | 6.02 | 6.62 |
| 00:04 | 2 | 15.2 | 68 | 83,081 | 0.16 | 5.59 | 3.12 | 22.91 | 38.88 | 0 | 3.71 | 7.49 | 8.24 |